[[{"header":{"parameterUnit":"m.s-1","parameterCategory":1,"la1":30.2991,"la2":30.254,"lo1":-89.0895,"lo2":-89.0444,"dy":0.0017,"dx":0.0017,"nx":28,"ny":28,"refTime":"2023-08-25T03:00:00:Z","depth":0,"parameterNumber":2,"parameterNumberName":"U-component_of_WINDS"},"data":[0,0,0,0,0,0,0,0,0,0,0,0,0,0,0,0,0,0,0,0,0,0,0,0,0,0,0,0,0,0,0,0,0,0,0,0,0,0,0,0,0,0,0,0,0,0,0,0,0,0,0,0,0,0,0,0,0,0,3.2036,3.2037,0,3.2165,3.2167,3.2168,3.2167,3.2165,3.2163,3.2162,3.2293,3.2298,3.2303,0,0,0,0,0,0,0,0,0,0,0,0,0,3.1784,3.1788,3.2035,3.2037,3.2039,3.2165,3.2167,3.2169,3.2167,3.2165,3.2163,3.2161,3.2291,3.2297,3.2303,0,0,0,0,0,0,0,0,0,0,0,0,0,3.1901,3.179,3.2035,3.2053,3.2056,3.2165,3.2167,3.2169,3.2167,3.2165,3.2162,3.216,3.2289,3.2296,3.2304,3.2402,0,0,3.2327,3.233,0,0,0,0,0,0,0,0,3.1895,3.191,3.2049,3.2052,3.2056,3.2147,3.2126,3.2247,3.2168,3.2125,3.2162,3.2159,3.2246,3.2257,3.2287,3.2409,3.2414,3.2328,3.2332,3.2336,3.2338,0,0,0,0,0,0,0,3.1886,3.1905,3.2087,3.2051,3.2055,3.2054,3.2068,3.2149,3.2198,3.2129,3.2129,3.2144,3.2247,3.228,3.229,3.2416,3.2328,3.2334,3.2339,3.2342,3.2622,3.2625,0,0,0,0,0,0,3.1875,3.1898,3.2083,3.2091,3.1967,3.2061,3.2076,3.212,3.2198,3.2207,3.2146,3.2144,3.2268,3.2281,3.2295,3.2413,3.2336,3.2343,3.2347,3.2619,3.2623,3.2626,0,0,0,0,0,0,3.1869,3.1891,3.2077,3.1995,3.2018,3.2068,3.2117,3.2124,3.2156,3.2211,3.222,3.217,3.2266,3.2284,3.2375,3.2418,3.2346,3.2353,3.2616,3.262,3.2624,3.2651,0,0,0,0,0,0,3.1862,3.1889,3.1928,3.1995,3.2023,3.2157,3.212,3.2129,3.217,3.2168,3.2236,3.2245,3.2266,3.2364,3.2383,3.2427,3.2359,3.2612,3.2618,3.2623,3.2647,3.2656,3.2664,0,0,0,0,0,3.1853,3.1931,3.193,3.1952,3.2072,3.2159,3.2174,3.2198,3.2173,3.2212,3.2247,3.2242,3.241,3.2373,3.2394,3.2441,3.261,3.2616,3.2623,3.2643,3.2654,3.2664,0,0,0,0,0,0,3.1867,3.194,3.194,3.2042,3.2094,3.2159,3.2208,3.2209,3.2269,3.2265,3.2291,3.2306,3.2397,3.2429,3.2386,3.254,3.2507,3.2518,3.2515,3.2526,3.2535,3.2524,3.2366,0,0,0,0,0,3.1882,3.1947,3.2007,3.2091,3.2117,3.2158,3.2197,3.221,3.2266,3.2288,3.2329,3.2382,3.2447,3.2489,3.2551,3.2652,3.2666,3.2695,3.2703,3.271,3.2719,3.2772,3.2785,3.2647,3.2647,3.2647,0,0,3.1913,3.1961,3.2,3.2095,3.2137,3.2203,3.2177,3.2248,3.2296,3.2298,3.2386,3.2419,3.248,3.2575,3.262,3.2605,3.276,3.2718,3.2723,3.2728,3.278,3.2793,3.2804,3.2652,3.2651,3.265,0,0,3.2002,3.2046,3.212,3.2163,3.2227,3.2254,3.2271,3.2336,3.2357,3.2446,3.2448,3.2506,3.2618,3.266,3.2696,3.2801,3.2799,3.2821,3.2865,3.2916,3.2927,3.2937,3.2972,3.2984,3.283,3.283,3.283,0,3.2032,3.2132,3.2157,3.2228,3.2269,3.2274,3.2348,3.2388,3.2469,3.2496,3.2479,3.2617,3.2659,3.2764,3.2789,3.2819,3.2838,3.2812,3.2924,3.2934,3.2943,3.2977,3.299,3.2832,3.2832,3.2832,3.2831,0,3.2165,3.2234,3.2286,3.2364,3.2411,3.2483,3.2517,3.2561,3.2571,3.2599,3.2688,3.2738,3.281,3.2836,3.2847,3.2942,3.293,3.2919,3.2885,3.2958,3.299,3.3003,3.2835,3.2834,3.2834,3.2833,0,0,3.2266,3.2356,3.2375,3.2409,3.2481,3.2534,3.2606,3.2676,3.2712,3.2768,3.2827,3.2921,3.291,3.2951,3.2966,3.3012,3.3089,3.2994,3.2995,3.3007,3.3194,3.3201,3.3216,3.3088,3.3091,3.3093,3.3188,0,3.2361,3.2488,3.2512,3.2623,3.2686,3.2692,3.2754,3.2803,3.2831,3.2888,3.2919,3.2984,3.2966,3.299,3.3036,3.3069,3.3126,3.3063,3.3142,3.3144,3.3124,3.3233,3.3241,3.3328,3.3201,3.3203,3.3205,0,3.2488,3.2547,3.2664,3.2725,3.2752,3.2808,3.2873,3.2928,3.2984,3.3001,3.3047,3.3057,3.313,3.3095,3.3195,3.3152,3.3186,3.3207,3.3211,3.3217,3.3177,3.3239,3.3357,3.3369,3.3225,3.3224,3.3222,0,3.2546,3.2655,3.2739,3.2769,3.2843,3.2881,3.2914,3.2967,3.3008,3.3065,3.3091,3.3156,3.3191,3.3241,3.3267,3.324,3.3365,3.3333,3.3379,3.3378,3.3403,3.34,3.3525,3.3429,3.3429,3.3429,3.3428,0,3.2649,3.2719,3.2765,3.2816,3.2895,3.2922,3.2999,3.3031,3.3078,3.3134,3.3144,3.3196,3.3229,3.3286,3.3307,3.3385,3.3402,3.3416,3.3421,3.3414,3.3412,3.3435,3.3428,3.3432,3.3431,3.3431,3.343,0,3.2726,3.276,3.2851,3.2914,3.2931,3.2986,3.3039,3.3088,3.3116,3.3187,3.3205,3.3249,3.3316,3.3348,3.3432,3.3446,3.3534,3.3536,3.3515,3.3516,3.3559,3.3553,3.37,3.372,3.3613,3.3614,3.3615,0,3.2788,3.2842,3.291,3.2949,3.2982,3.3045,3.3086,3.3114,3.3156,3.3223,3.3264,3.3332,3.3387,3.3494,3.3533,3.3596,3.3598,3.3645,3.3607,3.3598,3.3595,3.359,3.3595,3.365,3.3652,3.3652,3.3653,0,3.2892,3.2906,3.2965,3.303,3.3079,3.3131,3.3183,3.3214,3.325,3.3297,3.3366,3.3409,3.3494,3.356,3.3626,3.3658,3.3661,3.3665,3.3678,3.3671,3.3655,3.3662,3.353,3.3661,3.366,3.3659,3.3659,3.3659,3.2962,3.3009,3.3065,3.313,3.3171,3.3219,3.3267,3.3302,3.336,3.3431,3.3445,3.3517,3.357,3.3659,3.3694,3.375,3.3739,3.376,3.3764,3.3768,3.3769,3.3649,3.3763,3.3763,3.3763,3.3762,3.3762,0,3.3065,3.31,3.316,3.3231,3.3282,3.3282,3.3338,3.338,3.3444,3.3494,3.3548,3.3627,3.3691,3.3735,3.38,3.3836,3.3839,3.3852,3.3848,3.3855,3.3777,3.3757,3.3848,3.3848,3.3848,3.3848,3.3848,3.3848,3.3124,3.3204,3.3224,3.3324,3.3359,3.3431,3.3463,3.3506,3.3546,3.3632,3.3686,3.3714,3.3761,3.383,3.3888,3.3899,3.3921,3.3934,3.3945,3.387,3.3861,3.3852,3.3834,3.3939,3.394,3.4018,3.4019,3.4019]},{"header":{"parameterUnit":"m.s-1","parameterCategory":1,"la1":30.2991,"la2":30.254,"lo1":-89.0895,"lo2":-89.0444,"dy":0.0017,"dx":0.0017,"nx":28,"ny":28,"refTime":"2023-08-25T03:00:00:Z","depth":0,"parameterNumber":3,"parameterNumberName":"V-component_of_WINDS"},"data":[0,0,0,0,0,0,0,0,0,0,0,0,0,0,0,0,0,0,0,0,0,0,0,0,0,0,0,0,0,0,0,0,0,0,0,0,0,0,0,0,0,0,0,0,0,0,0,0,0,0,0,0,0,0,0,0,0,0,2.964,2.964,0,2.9614,2.9614,2.9614,2.9544,2.9542,2.9541,2.9539,2.9513,2.9514,2.9515,0,0,0,0,0,0,0,0,0,0,0,0,0,2.963,2.963,2.964,2.964,2.964,2.9614,2.9614,2.9614,2.9544,2.9542,2.9541,2.9539,2.9513,2.9514,2.9515,0,0,0,0,0,0,0,0,0,0,0,0,0,2.9622,2.9631,2.9641,2.9602,2.9598,2.9614,2.9614,2.9614,2.9545,2.9542,2.954,2.9538,2.9513,2.9514,2.9515,2.9566,0,0,2.9518,2.9519,0,0,0,0,0,0,0,0,2.9623,2.9623,2.9608,2.9605,2.9601,2.958,2.9601,2.9598,2.9545,2.9565,2.9539,2.9537,2.9537,2.9536,2.9536,2.9565,2.9564,2.9518,2.9519,2.9519,2.952,0,0,0,0,0,0,0,2.9623,2.9623,2.963,2.9608,2.9603,2.9586,2.9582,2.96,2.9564,2.9563,2.9558,2.9556,2.9535,2.9535,2.9535,2.9564,2.9518,2.9519,2.952,2.952,2.9631,2.9634,0,0,0,0,0,0,2.9629,2.9624,2.9631,2.9629,2.9606,2.9588,2.9584,2.9589,2.9564,2.9558,2.9558,2.9553,2.9535,2.9534,2.9534,2.9591,2.9519,2.952,2.9521,2.9629,2.9632,2.9634,0,0,0,0,0,0,2.9629,2.9631,2.9632,2.9625,2.9624,2.9591,2.9597,2.959,2.959,2.956,2.9553,2.9565,2.9533,2.9533,2.9558,2.9589,2.9521,2.9522,2.9626,2.963,2.9633,2.9707,0,0,0,0,0,0,2.9629,2.9631,2.965,2.9626,2.9625,2.9657,2.9599,2.9591,2.9592,2.9585,2.9565,2.9559,2.9531,2.9557,2.9559,2.959,2.9522,2.9623,2.9628,2.9632,2.9702,2.9713,2.9722,0,0,0,0,0,2.9629,2.9673,2.9652,2.9653,2.9648,2.9659,2.9658,2.9625,2.9595,2.9614,2.9594,2.956,2.9586,2.956,2.9562,2.9593,2.9621,2.9627,2.9632,2.9697,2.971,2.9722,0,0,0,0,0,0,2.9702,2.9669,2.9645,2.9682,2.9674,2.9647,2.967,2.9641,2.9641,2.9634,2.9593,2.9589,2.9621,2.961,2.9582,2.9641,2.9598,2.9604,2.9647,2.9659,2.9669,2.9671,2.9523,0,0,0,0,0,2.9722,2.9734,2.9704,2.974,2.9737,2.9705,2.9708,2.9683,2.9673,2.9669,2.9651,2.9643,2.9648,2.9653,2.9657,2.97,2.9694,2.9722,2.9732,2.9741,2.9746,2.9766,2.9778,2.9652,2.9652,2.9651,0,0,2.9764,2.9748,2.9758,2.9754,2.9744,2.9757,2.9702,2.9718,2.9726,2.9671,2.9694,2.9681,2.9669,2.9703,2.9717,2.9694,2.978,2.9747,2.9754,2.9755,2.9773,2.9785,2.9795,2.9655,2.9655,2.9654,0,0,2.9847,2.9836,2.9864,2.9855,2.9841,2.9819,2.9826,2.9804,2.9793,2.9815,2.9773,2.9783,2.9795,2.9787,2.9785,2.9864,2.9832,2.9866,2.9919,2.9939,2.9949,2.9958,2.9985,2.9995,2.9872,2.9872,2.9872,0,2.9901,2.9918,2.9882,2.99,2.9899,2.9849,2.9876,2.987,2.9859,2.9859,2.9834,2.9847,2.9835,2.9866,2.9885,2.9885,2.9891,2.9868,2.9951,2.9959,2.9966,2.9992,3.0002,2.9876,2.9876,2.9875,2.9875,0,2.9984,2.9997,3.0021,3.001,3.0012,3.0035,3.0001,3.0008,2.9983,2.9963,2.9986,2.997,2.9969,2.9975,2.9951,3.0002,2.9989,2.9958,2.9914,2.9983,3.0006,3.0016,2.9882,2.9881,2.9879,2.9878,0,0,3.0112,3.008,3.009,3.0084,3.0064,3.0073,3.0093,3.0092,3.0098,3.0091,3.0107,3.0117,3.0088,3.0086,3.006,3.0078,3.014,3.0045,3.0044,3.0062,3.0194,3.0216,3.0228,3.0119,3.0121,3.0122,3.0194,0,3.0189,3.0221,3.0189,3.0227,3.0237,3.019,3.0207,3.0197,3.018,3.0186,3.0166,3.0174,3.0136,3.0134,3.0149,3.0129,3.0166,3.0124,3.0132,3.0133,3.0135,3.024,3.0264,3.0333,3.0203,3.0205,3.0206,0,3.0283,3.028,3.032,3.0296,3.03,3.0316,3.0311,3.0318,3.0305,3.0291,3.0288,3.0257,3.0274,3.0232,3.0255,3.0227,3.0229,3.0219,3.0221,3.022,3.0173,3.0241,3.0355,3.0365,3.022,3.0219,3.0218,0,3.0371,3.0377,3.0401,3.0397,3.0371,3.0383,3.0373,3.0358,3.0359,3.0356,3.0356,3.0354,3.0354,3.0353,3.0322,3.0294,3.0349,3.0304,3.0337,3.0338,3.035,3.0349,3.0465,3.0353,3.0353,3.0353,3.0352,0,3.0459,3.0485,3.0439,3.0454,3.0481,3.0443,3.0471,3.0456,3.0443,3.0454,3.0413,3.0424,3.0383,3.039,3.0366,3.0388,3.0388,3.0377,3.037,3.038,3.0381,3.0379,3.0373,3.0355,3.0355,3.0354,3.0354,0,3.0561,3.0532,3.0555,3.0528,3.0522,3.0543,3.052,3.0532,3.0512,3.0525,3.0526,3.0494,3.05,3.0469,3.0469,3.0453,3.0486,3.0472,3.049,3.0486,3.052,3.0516,3.0637,3.065,3.0531,3.0533,3.0534,0,3.0619,3.0638,3.0613,3.0616,3.0608,3.0615,3.0616,3.0579,3.0582,3.0568,3.0582,3.0584,3.0583,3.0594,3.057,3.057,3.0554,3.0596,3.0554,3.0563,3.0553,3.0552,3.0553,3.0605,3.0607,3.0608,3.0609,0,3.0725,3.0709,3.0711,3.0708,3.0709,3.0705,3.0699,3.0704,3.0665,3.0669,3.0674,3.0673,3.0673,3.0675,3.0669,3.0658,3.0627,3.0622,3.063,3.0639,3.0649,3.0643,3.0513,3.062,3.0619,3.0618,3.0617,3.0617,3.0805,3.0819,3.0803,3.0806,3.0797,3.0792,3.0802,3.0782,3.0785,3.0781,3.076,3.0768,3.0754,3.0743,3.0736,3.0741,3.0721,3.0732,3.0735,3.0738,3.0743,3.0649,3.074,3.074,3.074,3.0739,3.0739,0,3.0907,3.0895,3.0898,3.089,3.0892,3.0862,3.0853,3.0857,3.0865,3.0854,3.0854,3.0859,3.086,3.0837,3.0835,3.0844,3.083,3.0845,3.0844,3.0841,3.0762,3.0755,3.0857,3.0857,3.0857,3.0857,3.0857,3.0857,3.0961,3.0982,3.0964,3.098,3.0967,3.0975,3.0972,3.0966,3.0957,3.0964,3.0965,3.095,3.0934,3.093,3.093,3.0923,3.0924,3.0944,3.0932,3.0859,3.0847,3.0836,3.0829,3.0945,3.0945,3.1011,3.1011,3.1012]}]]